When you browse on this site, cookies collect data to enhance your experience and personalize the content and advertising you see.
Visit our Privacy Policy to learn more. By continuing to use the site, you agree to this use of cookies and data.
  • în România
  • Lista ţărilor
  • Pe 7 zile
  • Temperatura apei
  • Hartă satelitară
  • Meteo pe hartă
  • Widget-uri
  • user-avatar
    Intrare

    Meteo pe oră la Ramushki

    Astăzi, 25 Aprilie, Joi

    Timp Temperatura Precipitaţii Vânt Presiune Umiditate
    00:00 +13°C° 0 mm 2 m/s 760 mmHg 66%
    01:00 +12°C° 0 mm 2 m/s 760 mmHg 69%
    02:00 +12°C° 0 mm 2 m/s 760 mmHg 71%
    03:00 +11°C° 0 mm 1 m/s 760 mmHg 75%
    04:00 +12°C° 0 mm 1 m/s 760 mmHg 74%
    05:00 +12°C° 0 mm 1 m/s 760 mmHg 73%
    06:00 +12°C° 0 mm 1 m/s 760 mmHg 72%
    07:00 +14°C° 0 mm 2 m/s 760 mmHg 66%
    08:00 +16°C° 0 mm 2 m/s 760 mmHg 59%
    09:00 +19°C° 0 mm 3 m/s 760 mmHg 50%
    10:00 +20°C° 0 mm 3 m/s 760 mmHg 46%
    11:00 +21°C° 0 mm 4 m/s 760 mmHg 42%
    12:00 +21°C° 0 mm 4 m/s 760 mmHg 38%
    13:00 +21°C° 0 mm 4 m/s 760 mmHg 39%
    14:00 +21°C° 0 mm 3 m/s 760 mmHg 40%
    15:00 +21°C° 0 mm 3 m/s 759 mmHg 40%
    16:00 +20°C° 0 mm 2 m/s 759 mmHg 43%
    17:00 +19°C° 0 mm 2 m/s 759 mmHg 47%
    18:00 +20°C° 0 mm 1 m/s 759 mmHg 50%
    19:00 +18°C° 0.1 mm 1 m/s 759 mmHg 56%
    20:00 +16°C° 0.1 mm 2 m/s 759 mmHg 63%
    21:00 +15°C° 0.1 mm 2 m/s 759 mmHg 70%
    22:00 +14°C° 0 mm 2 m/s 759 mmHg 76%
    23:00 +13°C° 0 mm 2 m/s 759 mmHg 82%

    Mâine, 26 Aprilie, Vineri

    Timp Temperatura Precipitaţii Vânt Presiune Umiditate
    00:00 +11°C° 0 mm 3 m/s 759 mmHg 88%
    01:00 +10°C° 0 mm 2 m/s 759 mmHg 89%
    02:00 +10°C° 0 mm 2 m/s 759 mmHg 90%
    03:00 +9°C° 0 mm 2 m/s 759 mmHg 91%
    04:00 +9°C° 0 mm 2 m/s 760 mmHg 87%
    05:00 +10°C° 0 mm 2 m/s 760 mmHg 83%
    06:00 +10°C° 0 mm 2 m/s 760 mmHg 80%
    07:00 +11°C° 0 mm 3 m/s 760 mmHg 70%
    08:00 +13°C° 0 mm 3 m/s 760 mmHg 60%
    09:00 +14°C° 0 mm 4 m/s 760 mmHg 51%
    10:00 +15°C° 0 mm 4 m/s 761 mmHg 46%
    11:00 +17°C° 0 mm 4 m/s 761 mmHg 41%
    12:00 +17°C° 0 mm 4 m/s 761 mmHg 37%
    13:00 +17°C° 0 mm 4 m/s 761 mmHg 36%
    14:00 +18°C° 0 mm 4 m/s 761 mmHg 36%
    15:00 +18°C° 0 mm 4 m/s 761 mmHg 36%
    16:00 +17°C° 0 mm 4 m/s 761 mmHg 38%
    17:00 +15°C° 0 mm 4 m/s 761 mmHg 39%
    18:00 +14°C° 0 mm 3 m/s 761 mmHg 41%
    19:00 +13°C° 0 mm 3 m/s 761 mmHg 44%
    20:00 +12°C° 0 mm 3 m/s 762 mmHg 47%
    21:00 +12°C° 0 mm 2 m/s 762 mmHg 50%
    22:00 +10°C° 0 mm 2 m/s 762 mmHg 52%
    23:00 +10°C° 0 mm 1 m/s 762 mmHg 55%

    Poimâine, 27 Aprilie, Sâmbătă

    Timp Temperatura Precipitaţii Vânt Presiune Umiditate
    00:00 +10°C° 0 mm 1 m/s 762 mmHg 57%
    01:00 +9°C° 0 mm 1 m/s 762 mmHg 58%
    02:00 +8°C° 0 mm 0 m/s 762 mmHg 59%
    03:00 +7°C° 0 mm 0 m/s 762 mmHg 60%
    04:00 +8°C° 0 mm 0 m/s 762 mmHg 59%
    05:00 +10°C° 0 mm 1 m/s 762 mmHg 57%
    06:00 +10°C° 0 mm 1 m/s 762 mmHg 56%
    07:00 +12°C° 0 mm 2 m/s 762 mmHg 50%
    08:00 +14°C° 0 mm 2 m/s 761 mmHg 44%
    09:00 +14°C° 0 mm 3 m/s 761 mmHg 37%
    10:00 +16°C° 0 mm 3 m/s 761 mmHg 36%
    11:00 +18°C° 0 mm 4 m/s 760 mmHg 35%
    12:00 +19°C° 0 mm 4 m/s 760 mmHg 34%
    13:00 +19°C° 0 mm 4 m/s 759 mmHg 36%
    14:00 +19°C° 0 mm 5 m/s 759 mmHg 37%
    15:00 +20°C° 0 mm 5 m/s 758 mmHg 39%
    16:00 +19°C° 0 mm 4 m/s 758 mmHg 42%
    17:00 +19°C° 0 mm 3 m/s 757 mmHg 45%
    18:00 +18°C° 0 mm 2 m/s 757 mmHg 48%
    19:00 +17°C° 0.1 mm 3 m/s 757 mmHg 56%
    20:00 +16°C° 0.1 mm 3 m/s 756 mmHg 64%
    21:00 +14°C° 0.1 mm 3 m/s 756 mmHg 72%
    22:00 +13°C° 0 mm 3 m/s 756 mmHg 77%
    23:00 +13°C° 0 mm 3 m/s 755 mmHg 81%

    28 Aprilie, Duminică

    Timp Temperatura Precipitaţii Vânt Presiune Umiditate
    00:00 +12°C° 0 mm 3 m/s 755 mmHg 85%
    01:00 +12°C° 0 mm 3 m/s 754 mmHg 88%
    02:00 +12°C° 0 mm 3 m/s 754 mmHg 91%
    03:00 +11°C° 0 mm 3 m/s 753 mmHg 93%
    04:00 +12°C° 0 mm 4 m/s 753 mmHg 90%
    05:00 +12°C° 0 mm 4 m/s 753 mmHg 86%
    06:00 +13°C° 0 mm 4 m/s 752 mmHg 83%
    07:00 +15°C° 0 mm 5 m/s 752 mmHg 73%
    08:00 +17°C° 0 mm 6 m/s 751 mmHg 62%
    09:00 +19°C° 0 mm 6 m/s 751 mmHg 52%
    10:00 +20°C° 0 mm 7 m/s 750 mmHg 48%
    11:00 +21°C° 0 mm 8 m/s 750 mmHg 44%
    12:00 +22°C° 0 mm 9 m/s 749 mmHg 40%
    13:00 +22°C° 0 mm 8 m/s 749 mmHg 41%
    14:00 +22°C° 0 mm 8 m/s 749 mmHg 42%
    15:00 +21°C° 0 mm 7 m/s 749 mmHg 42%
    16:00 +18°C° 1.1 mm 7 m/s 749 mmHg 55%
    17:00 +16°C° 1.1 mm 7 m/s 749 mmHg 67%
    18:00 +13°C° 1.1 mm 6 m/s 750 mmHg 79%
    19:00 +10°C° 0.9 mm 6 m/s 750 mmHg 79%
    20:00 +8°C° 0.9 mm 6 m/s 750 mmHg 80%
    21:00 +5°C° 0.9 mm 6 m/s 751 mmHg 80%
    22:00 +5°C° 2 mm 6 m/s 751 mmHg 80%
    23:00 +4°C° 2 mm 6 m/s 751 mmHg 80%

    29 Aprilie, Luni

    Timp Temperatura Precipitaţii Vânt Presiune Umiditate
    00:00 +5°C° 2 mm 5 m/s 751 mmHg 81%
    01:00 +4°C° 0.2 mm 6 m/s 752 mmHg 80%
    02:00 +3°C° 0.2 mm 6 m/s 752 mmHg 78%
    03:00 +3°C° 0.2 mm 6 m/s 753 mmHg 77%
    04:00 +2°C° 0 mm 6 m/s 754 mmHg 76%
    05:00 +2°C° 0 mm 7 m/s 754 mmHg 74%
    06:00 0°C° 0 mm 7 m/s 755 mmHg 72%
    07:00 +2°C° 0 mm 7 m/s 755 mmHg 66%
    08:00 +3°C° 0 mm 7 m/s 756 mmHg 60%
    09:00 +4°C° 0 mm 7 m/s 756 mmHg 54%
    10:00 +5°C° 0 mm 7 m/s 756 mmHg 50%
    11:00 +7°C° 0 mm 6 m/s 756 mmHg 47%
    12:00 +7°C° 0 mm 6 m/s 756 mmHg 43%
    13:00 +8°C° 0 mm 6 m/s 757 mmHg 42%
    14:00 +8°C° 0 mm 6 m/s 757 mmHg 41%
    15:00 +8°C° 0 mm 5 m/s 757 mmHg 40%
    16:00 +7°C° 0 mm 5 m/s 757 mmHg 42%
    17:00 +7°C° 0 mm 5 m/s 757 mmHg 44%
    18:00 +6°C° 0 mm 5 m/s 757 mmHg 45%
    19:00 +5°C° 0 mm 5 m/s 758 mmHg 48%
    20:00 +4°C° 0 mm 4 m/s 758 mmHg 50%
    21:00 +3°C° 0 mm 4 m/s 759 mmHg 53%
    22:00 +1°C° 0 mm 4 m/s 759 mmHg 55%
    23:00 +1°C° 0 mm 4 m/s 759 mmHg 58%

    30 Aprilie, Marţi

    Timp Temperatura Precipitaţii Vânt Presiune Umiditate
    00:00 0°C° 0 mm 4 m/s 759 mmHg 61%
    01:00 0°C° 0 mm 4 m/s 760 mmHg 65%
    02:00 0°C° 0 mm 3 m/s 760 mmHg 69%
    03:00 0°C° 0 mm 3 m/s 760 mmHg 72%
    04:00 0°C° 0 mm 3 m/s 760 mmHg 70%
    05:00 +1°C° 0 mm 3 m/s 761 mmHg 69%
    06:00 0°C° 0 mm 4 m/s 761 mmHg 67%
    07:00 +2°C° 0 mm 3 m/s 761 mmHg 59%
    08:00 +3°C° 0 mm 3 m/s 761 mmHg 51%
    09:00 +4°C° 0 mm 3 m/s 761 mmHg 43%
    10:00 +5°C° 0 mm 3 m/s 761 mmHg 39%
    11:00 +7°C° 0 mm 2 m/s 761 mmHg 36%
    12:00 +7°C° 0 mm 2 m/s 761 mmHg 32%
    13:00 +8°C° 0 mm 2 m/s 760 mmHg 31%
    14:00 +8°C° 0 mm 2 m/s 760 mmHg 30%
    15:00 +9°C° 0 mm 2 m/s 760 mmHg 30%
    16:00 +8°C° 0 mm 2 m/s 760 mmHg 32%
    17:00 +8°C° 0 mm 2 m/s 760 mmHg 35%
    18:00 +7°C° 0 mm 2 m/s 759 mmHg 38%
    19:00 +6°C° 0 mm 2 m/s 759 mmHg 40%
    20:00 +6°C° 0 mm 1 m/s 759 mmHg 42%
    21:00 +4°C° 0 mm 0 m/s 759 mmHg 44%
    22:00 +5°C° 0 mm 1 m/s 759 mmHg 44%
    23:00 +5°C° 0 mm 1 m/s 759 mmHg 45%
    Arată mai mult